www.pogodaiklimat.ru

Погода и климат >> Архив погоды >> Таиланд >> Ратбури


ПОГОДА в Ратбури

  • Прогноз погоды в Ратбури
  • Монитор погоды в Ратбури

АРХИВ ПОГОДЫ в Ратбури

Время (UTC), дата Ветер
(напр.,м/с)
 
Видим.   Явления Облачность Т
(С)
Тd
(С)
f
(%)
Тe
(С)
Тes
(С)
Комфортность P
(гПа)
Po
(гПа)
Тmin
(С)
Tmax
(С)
R
(мм)
R24
(мм)
S
(см)
00 12.06 ЮВ 2 8000 м слаб. дождь 10/6 300 м
[Sc As op]
+26.5 +25.4 94 +39 +39 очень
душно
1007.8 1006.6 +25.7 0.2
03 12.06 Ю 6 14 км 8/3 600 м
[Cu med, cong Ac und Cs]
+32.0 +25.1 67 +46 +48 опасность
перегрева
1009.1 1007.9
06 12.06 Ю 4 14 км 10/6 600 м
[Sc diur, vesp As op]
+32.3 +25.1 66 +46 +47 опасность
перегрева
1008.4 1007.2
09 12.06 ЮЗ 4 14 км 10/5 600 м
[Sc diur, vesp As op]
+31.6 +25.1 69 +46 +46 опасность
перегрева
1006.4 1005.2
12 12.06 ЮВ 2 12 км 10/6 600 м
[Sc diur, vesp Ac As]
+30.2 +23.9 69 +42 +42 опасность
перегрева
1006.4 1005.2 +32.7
15 12.06 ЮВ 2 10 км 9/3 600 м
[Sc Cs]
+27.8 +24.3 81 +39 +39 очень
душно
1008.3 1007.0
18 12.06 ЮВ 2 10 км 8/3 600 м
[Sc Cs]
+27.2 +24.2 84 +38 +38 очень
душно
1007.5 1006.2
21 12.06 ЮВ 2 10 км 8/3 600 м
[Sc Cs]
+26.7 +24.5 88 +38 +38 очень
душно
1007.1 1005.8
00 13.06 ЮВ 4 12 км 8/3 600 м
[Sc Cs]
+27.5 +25.4 88 +40 +41 очень
душно
1008.3 1007.0 +26.5
03 13.06 штиль 0 14 км 9/6 600 м
[Sc Ac cuf]
+31.5 +25.1 69 +45 +49 опасность
перегрева
1008.6 1007.3
06 13.06 З 6 14 км 10/8 600 м
[Sc diur, vesp Cs]
+33.0 +25.9 66 +48 +50 опасность
перегрева
1007.7 1006.4
09 13.06 Ю 4 12 км 9/8 600 м
[Sc diur, vesp Cs]
+33.5 +25.4 63 +48 +49 опасность
перегрева
1005.6 1004.3
12 13.06 штиль 0 10 км 10/8 600 м
[Sc diur, vesp Cs]
+29.3 +25.5 80 +43 +43 опасность
перегрева
1006.2 1005.0 +34.0
15 13.06 штиль 0 10 км 8/4 600 м
[Cu med, cong Cs]
+28.1 +24.4 80 +39 +39 очень
душно
1008.5 1007.3
18 13.06 Ю 6 10 км 10/4 600 м
[Sc diur, vesp Cs]
+27.5 +24.0 81 +38 +38 очень
душно
1008.0 1006.8
21 13.06 штиль 0 10 км 10/3 600 м
[Cu med, cong Cs]
+27.2 +24.6 86 +39 +39 очень
душно
1007.6 1006.3
00 14.06 штиль 0 14 км 9/3 600 м
[Cu med, cong Ac und Cs]
+27.0 +25.0 89 +39 +40 очень
душно
1008.0 1006.8 +26.1
03 14.06 Ю 4 14 км 9/3 600 м
[Cu med, cong Ac und Cs]
+31.0 +26.1 75 +46 +51 опасность
перегрева
1009.1 1007.8
06 14.06 ЮВ 4 14 км 8/6 600 м
[Sc diur, vesp Cs]
+33.2 +25.9 66 +49 +54 опасность
перегрева
1007.5 1006.3
09 14.06 З 4 14 км {дождь} 8/4 600 м
[Sc diur, vesp Cs]
+31.7 +24.6 66 +44 +47 опасность
перегрева
1006.0 1004.8 0.0
12 14.06 ЮВ 4 10 км {дождь} 4/3 600 м
[Cu med, cong Ci fib]
+30.5 +23.2 65 +41 +41 опасность
перегрева
1006.4 1005.1 +33.5 0.0
15 14.06 Ю 2 10 км 6/3 600 м
[Cu med, cong Cs]
+28.1 +23.6 77 +39 +39 очень
душно
1008.6 1007.3
18 14.06 штиль 0 10 км 8/4 600 м
[Sc diur, vesp Cs]
+27.9 +23.4 77 +38 +38 очень
душно
1008.5 1007.3
21 14.06 штиль 0 10 км 8/4 600 м
[Sc diur, vesp Cs]
+27.0 +23.3 80 +36 +36 очень
душно
1007.5 1006.3
00 15.06 штиль 0 12 км 9/3 600 м
[Sc diur, vesp Ac As Cs]
+26.4 +24.7 90 +37 +38 очень
душно
1008.4 1007.1 +26.0
03 15.06 З 4 15 км 8/4 600 м
[Cu hum Ac lent Ci fib]
+32.0 +25.7 69 +47 +51 опасность
перегрева
1009.1 1007.9
06 15.06 ЮЗ 4 15 км 8/5 600 м
[Sc diur, vesp Ci fib]
+34.1 +25.6 61 +49 +55 опасность
перегрева
1007.8 1006.5
09 15.06 СЗ 4 15 км 6/4 600 м
[Cu med, cong Ci fib]
+34.7 +26.1 61 +51 +53 опасность
перегрева
1005.3 1004.1
12 15.06 Ю 2 12 км 10/4 600 м
[Sc diur, vesp As op Cs]
+32.0 +23.3 60 +43 +43 опасность
перегрева
1006.1 1004.9 +35.3
15 15.06 ЮЗ 2 10 км 10/5 600 м
[Sc diur, vesp Cs]
+29.2 +24.6 76 +41 +41 опасность
перегрева
1008.4 1007.1
18 15.06 штиль 0 8000 м слаб. дождь 10/5 300 м
[Sc As op]
+28.1 +23.9 78 +39 +39 очень
душно
1008.4 1007.1 0.0
21 15.06 ЮЗ 2 10 км {дождь} 10/4 600 м
[Sc As op]
+27.2 +24.8 87 +39 +39 очень
душно
1007.8 1006.5 0.0
00 16.06 ЮЗ 2 12 км {дождь} 10/3 600 м
[Sc Ac und Cs]
+27.3 +24.7 86 +39 +39 очень
душно
1007.7 1006.4 +26.7 0.0
03 16.06 ЮЗ 10 15 км 10/3 600 м
[Cu Sc As op Cs]
+32.3 +25.9 69 +48 +48 опасность
перегрева
1009.2 1007.9
06 16.06 З 8 10 км осадки на расстоянии 10/6 300 м
[Sc diur, vesp As op]
+31.3 +25.2 70 +45 +45 опасность
перегрева
1007.9 1006.7
09 16.06 СЗ 2 10 км {дождь} 10/10 300 м
[Sc diur, vesp]
+29.0 +27.3 91 +47 +47 опасность
перегрева
1006.4 1005.2 2
12 16.06 штиль 0 10 км {дождь} 10/8 600 м
[Sc diur, vesp As op]
+28.8 +24.3 77 +40 +40 очень
душно
1006.5 1005.3 +33.5 2
15 16.06 штиль 0 10 км 10/6 600 м
[Sc diur, vesp As op]
+27.8 +24.5 82 +39 +39 очень
душно
1008.1 1006.9
18 16.06 ЮВ 2 10 км 10/3 600 м
[Cu hum As op Cs]
+26.7 +25.1 91 +38 +38 очень
душно
1007.6 1006.4
21 16.06 ЮЗ 2 10 км 10/4 600 м
[Sc As op Cs]
+26.5 +24.3 88 +37 +37 очень
душно
1006.5 1005.3
00 17.06 Ю 2 10 км в посл. час дождь 10/10 300 м
[Sc diur, vesp]
+26.5 +24.9 91 +38 +38 очень
душно
1007.7 1006.4 +26.0 0.0
03 17.06 штиль 0 12 км слаб. дождь 10/6 600 м
[Sc diur, vesp As op]
+29.1 +25.7 82 +43 +45 опасность
перегрева
1009.1 1007.9 0.0
06 17.06 штиль 0 14 км {дождь} 10/6 600 м
[Sc diur, vesp As op]
+30.6 +26.4 78 +47 +49 опасность
перегрева
1007.9 1006.6 0.0
09 17.06 ЮЗ 2 14 км в посл. час дождь 10/6 600 м
[Sc diur, vesp As op]
+30.5 +24.3 70 +43 +43 опасность
перегрева
1006.9 1005.7 0.0
12 17.06 штиль 0 10 км {дождь} 10/8 600 м
[Sc diur, vesp As op]
+28.5 +23.6 75 +39 +39 очень
душно
1006.8 1005.5 +31.5 0.0
15 17.06 штиль 0 10 км 10/5 600 м
[Sc diur, vesp As op]
+27.0 +24.8 88 +39 +39 очень
душно
1008.1 1006.9
18 17.06 Ю 4 10 км 10/5 600 м
[Sc diur, vesp As op]
+27.5 +24.8 85 +39 +39 очень
душно
1007.2 1006.0
21 17.06 ЮВ 2 10 км 10/5 600 м
[Sc diur, vesp As op]
+27.1 +24.4 85 +38 +38 очень
душно
1007.1 1005.9
00 18.06 штиль 0 12 км 8/3 600 м
[Sc diur, vesp Ac und Cs]
+27.1 +24.4 85 +38 +39 очень
душно
1006.9 1005.6 +25.7
03 18.06 Ю 2 14 км 10/5 600 м
[Sc diur, vesp As op]
+30.7 +23.9 67 +42 +44 опасность
перегрева
1007.9 1006.7
06 18.06 ЮЗ 4 14 км 10/8 600 м
[Sc diur, vesp As op]
+32.4 +24.4 63 +45 +46 опасность
перегрева
1007.3 1006.1
09 18.06 Ю 6 14 км 10/6 600 м
[Sc diur, vesp Ci sp]
+30.9 +24.0 67 +43 +44 опасность
перегрева
1006.2 1004.9
12 18.06 штиль 0 10 км 10/6 600 м
[Sc diur, vesp As op]
+29.0 +23.5 72 +39 +39 очень
душно
1006.2 1004.9 +33.0
15 18.06 Ю 4 10 км 10/6 600 м
[Sc diur, vesp As op]
+27.6 +24.6 84 +39 +39 очень
душно
1008.1 1006.8
18 18.06 ЮВ 6 10 км 10/6 600 м
[Sc diur, vesp As op]
+27.3 +24.0 82 +38 +38 очень
душно
1007.6 1006.3
21 18.06 ЮВ 2 10 км 10/5 600 м
[Sc As op]
+26.7 +24.2 86 +37 +37 очень
душно
1007.3 1006.0

 

Местоположение метеостанции Ратбури (Таиланд): широта 13.37 долгота 100.98 высота над уровнем моря 2 м.

В архиве по умолчанию представлена погода в Ратбури за последнюю неделю. Архивные данные за месяц целиком и за предыдущие месяцы, начиная с января 2011 года, Вы можете получить, выбрав интересующий диапазон дат из раскрывающегося списка и нажав кнопку "Ввод!".


*Определитесь, кто Вы:
робот инопланетянин человек

Внимание! Время в таблицах - всемирное. Для получения местного времени необходимо прибавить поправку, которая равна 7 ч.

Смотрите также архив погоды в соседних городах и на ближайших метеорологических станциях:

Погода на Ко Сичан (Таиланд) (30 км)
Погода в Самутрудкан Агромете (Таиланд) (30 км)
Погода в Бангкок Пилот (Таиланд) (41 км)
Погода в Аэропорту Суварнабхуми (Таиланд) (42 км)
Погода в Бангна Агромете (Таиланд) (51 км)
Погода в Паттайе (Таиланд) (52 км)
Погода в Чаченгсау (Таиланд) (53 км)
Погода в Бангкоке 2 (Таиланд) (58 км)
Погода в Бангкоке (Таиланд) (61 км)
Погода в Хуайпонг Агромете (Таиланд) (73 км)

Пояснения к столбцам:

Ветер - указаны скорость ветра в м/с - средняя за 10 мин, порывы в срок и между сроками (в фигурных скобках) и направление, откуда дует ветер: С - северный, СВ - северо-восточный, В - восточный, ЮВ - юго-восточный, Ю - южный, ЮЗ - юго-западный, З - западный, СЗ - северо-западный.
Видимость - горизонтальная дальность видимости в метрах или километрах. При видимости от 1 до 10 км при отсутствии осадков обычно наблюдается дымка, при ухудшении видимости до 1 км и менее - туман. В сухую погоду видимость может ухудшаться дымом, пылью или мглою.
Явления - указаны атмосферные явления, наблюдавшиеся в срок или в последний час перед сроком; фигурными скобками обозначены явления, наблюдавшиеся между сроками (за 1-3 часа до срока); квадратными скобками обозначены град или гололедные отложения с указанием их диаметра в мм.
Облачность - указаны через наклонную черту общая и нижняя облачность в баллах и высота нижней границы облаков в метрах; квадратными скобками обозначены формы облаков: Ci - перистые, Cs - перисто-слоистые, Cc - перисто-кучевые, Ac - высококучевые, As - высокослоистые, Sc - слоисто-кучевые, Ns - слоисто-дождевые, Cu - кучевые, Cb - кучево-дождевые. Подробнее классификацию облаков см. в Атласе облаков (PDF).
T - Температура воздуха - температура, измеренная на высоте 2 м над землей.
Td - Температура точки росы - температура, при понижении до которой содержащийся в воздухе водяной пар достигнет насыщения.
f - Относительная влажность воздуха - влажноcть воздуха, измеренная на высоте 2 м над землей.
Te - Эффективная температура - температура, которую ощущает одетый по сезону человек в тени. Характеристика душности погоды. При расчете учитывается влияние влажности воздуха и скорости ветра на теплоощущения человека.
Tes - Эффективная температура на солнце - температура, которую ощущает человек, с поправкой на солнечный нагрев. Характеристика знойности погоды. Зависит от высоты солнца над горизонтом, облачности и скорости ветра. Ночью, в пасмурную погоду, а также при ветре 12 м/с и более поправка равна нулю.
P - Атмосферное давление - приведенное к уровню моря атмосферное давление.
Po - Атмосферное давление - измеренное на уровне метеостанции атмосферное давление.
Tmin - Минимальная температура - минимум температуры воздуха на высоте 2 м над землей.
Tmax - Максимальная температура - максимум температуры воздуха на высоте 2 м над землей.
R - Количество осадков - Количество выпавших осадков за период времени, мм. При наведении курсора мыши на число - период времени, за который выпало указанное количество осадков.
R24 - Количество осадков - Количество выпавших осадков за 24 часа, мм.
S - Снежный покров - Высота снежного покрова, см. При наведении курсора мыши на число - состояние снежного покрова и степень покрытия местности в баллах.